Pescara International Airport

Jump to: basic info | weather | frequencies | runways | comments

Related pages: nearby airports | nearby navaids | notams | map

Basic information (top)

Codes: PSR LIBP
Location: lon 42.431702, lat 14.181100, elev 48 ft / 15 m msl
Status: medium_airport
Scheduled airline service: yes
Links: Wikipedia Mobile

Weather (top)

Current conditions (rec'd 2015/03/03 02:50Z):

LIBP 030250Z 00000KT CAVOK 11/07 Q1017

Airport forecast (rec'd 2015/03/02 00:00Z):

TAF LIBP 022300Z 0300/0324 VRB06KT 9999 FEW040

Frequencies (top)

Verify before use: may be inaccurate or out of date.

APP: 120.05 MHz (APP)
TWR: 118.45 MHz (TWR)

Runways (top)

04/22: 7,933 x 148 ft (2,418 x 45 m) — paved — lighted — threshold 04 displaced 344 ft (105 m) — threshold 22 displaced 617 ft (188 m)

Latest comments (top)

No comments yet for Pescara International Airport

More... (top)

See also NOTAMs and nearby airports and navaids, or visit the Pescara International Airport page at the main OurAirports website..